User: anonymous   Login
Location: Unspecified
(0.0000°N, 0.0000°E)
Time: 10:53:34
(UTC+01:00)
Language:

Palapa 6 Rocket - Orbit

View from above orbital plane
View from above orbital plane
View from above satellite
View from above satellite

Ground track
Ground track

The orbit data is extracted from the following two-line orbital elements,

1 20571U 90034B   14303.71069199  .00003246  00000-0  45470-3 0  5628
2 20571 022.7434 152.4055 0516968 034.9988 029.1395 14.09848781256201
Epoch (UTC): 30 October 2014 17:03:23
Eccentricity: 0.0516968
inclination: 22.7434°
perigee height: 486 km
apogee height: 1234 km
right ascension of ascending node: 152.4055°
argument of perigee: 34.9988°
revolutions per day: 14.09848781
mean anomaly at epoch: 29.1395°
orbit number at epoch: 25620

The dashed part of the orbit path shows where the satellite is in the earth's shadow,  

DLR